231346 Weather Reports


time (UTC)temp
F
wind
direction
speed
knots
gust
knots
rain 1hr
in
rain 24hr
in
rain mn
in
humidity
%
barometer
mb
20260507034601 0 36 2.6 7.8 0.00 0.00 0.00 1021.0
20260507033110 0 355 2.6 8.7 0.00 0.00 0.00 1020.9
20260507031601 0 35 3.5 8.7 0.00 0.00 0.00 1020.8
20260507030108 0 51 5.2 9.6 0.00 0.00 0.00 1020.8
20260507024608 0 46 2.6 8.7 0.00 0.00 0.00 1020.6
20260507023053 0 65 5.2 9.6 0.00 0.00 0.00 1020.5
20260507021557 0 53 4.3 10.4 0.00 0.00 0.00 1020.6
20260507020059 0 24 5.2 11.3 0.00 0.00 0.00 1020.6
20260507014557 0 44 6.1 9.6 0.00 0.00 0.00 1020.6
20260507013059 0 67 6.1 12.2 0.00 0.00 0.00 1020.6
20260507011557 0 49 7.0 11.3 0.00 0.00 0.00 1020.7
20260507010051 0 61 7.0 11.3 0.00 0.00 0.00 1020.7
20260507004550 0 55 7.0 11.3 0.00 0.00 0.00 1020.6
20260507003049 0 42 7.8 12.2 0.00 0.00 0.00 1020.6
20260507001549 0 43 7.0 11.3 0.00 0.00 0.00 1020.5
20260507000049 0 71 5.2 13.0 0.00 0.00 0.00 1020.6
20260506234557 0 32 6.1 10.4 0.00 0.00 0.00 1020.7
20260506233052 0 44 7.8 13.0 0.00 0.00 0.00 1020.8
20260506231554 0 55 7.0 12.2 0.00 0.00 0.00 1020.9
20260506230048 0 43 7.0 13.9 0.00 0.00 0.00 1020.9
20260506224548 0 50 7.8 13.9 0.00 0.00 0.00 1021.0
20260506223047 0 64 7.0 13.9 0.00 0.00 0.00 1020.9
20260506221547 0 42 7.0 13.0 0.00 0.00 0.00 1021.0
20260506220051 0 34 7.0 10.4 0.00 0.00 0.00 1021.1
20260506214548 0 50 7.0 12.2 0.00 0.00 0.00 1021.0
20260506213047 0 17 5.2 12.2 0.00 0.00 0.00 1021.1
20260506211541 0 55 6.1 10.4 0.00 0.00 0.00 1021.1
20260506210037 0 56 7.8 12.2 0.00 0.00 0.00 1021.1
20260506204535 0 38 7.8 12.2 0.00 0.00 0.00 1021.1
20260506203037 0 60 7.0 13.9 0.00 0.00 0.00 1021.0
20260506201524 0 59 7.0 11.3 0.00 0.00 0.00 1021.0
20260506200019 0 44 7.8 12.2 0.00 0.00 0.00 1020.9
20260506194517 0 57 7.8 13.0 0.00 0.00 0.00 1020.8
20260506193013 0 40 4.3 12.2 0.00 0.00 0.00 1020.8
20260506191506 0 53 7.8 12.2 0.00 0.00 0.00 1020.7
20260506190003 0 36 7.8 12.2 0.00 0.00 0.00 1020.6
20260506184558 0 42 5.2 11.3 0.00 0.00 0.00 1020.7
20260506183056 0 63 7.8 12.2 0.00 0.00 0.00 1020.6
20260506181552 0 42 5.2 10.4 0.00 0.00 0.00 1020.6
20260506180048 0 44 7.8 13.0 0.00 0.00 0.00 1020.5
20260506174543 0 38 6.1 12.2 0.00 0.00 0.00 1020.3
20260506173104 0 67 7.8 11.3 0.00 0.00 0.00 1020.3
20260506171534 0 52 9.6 13.0 0.00 0.00 0.00 1020.2
20260506170031 0 55 8.7 15.6 0.00 0.00 0.00 1020.3
20260506164526 0 48 6.1 11.3 0.00 0.00 0.00 1020.4
20260506163030 0 41 8.7 13.0 0.00 0.00 0.00 1020.3
20260506161518 0 56 5.2 10.4 0.00 0.00 0.00 1020.2
20260506160016 0 52 5.2 9.6 0.00 0.00 0.00 1020.0
20260506154511 0 52 4.3 9.6 0.00 0.00 0.00 1020.1
20260506153009 0 45 4.3 8.7 0.00 0.00 0.00 1020.1
20260506151505 0 56 4.3 9.6 0.00 0.00 0.00 1020.0
20260506144557 0 56 2.6 7.0 0.00 0.00 0.00 1019.9
20260506143052 0 57 3.5 5.2 0.00 0.00 0.00 1020.0
20260506141548 0 27 2.6 4.3 0.00 0.00 0.00 1019.8
20260506140044 0 28 2.6 5.2 0.00 0.00 0.00 1019.5
20260506134540 0 60 1.7 4.3 0.00 0.00 0.00 1019.6
20260506133039 0 64 2.6 5.2 0.00 0.00 0.00 1019.6
20260506131544 0 53 3.5 7.8 0.00 0.00 0.00 1019.5
20260506130029 0 66 4.3 8.7 0.00 0.00 0.00 1019.5
20260506124523 0 44 2.6 6.1 0.00 0.00 0.00 1019.2
20260506123021 0 42 4.3 9.6 0.00 0.00 0.00 1019.1
20260506121516 0 50 6.1 10.4 0.00 0.00 0.00 1019.0
20260506120018 0 27 5.2 8.7 0.00 0.00 0.00 1018.9
20260506114508 0 62 4.3 8.7 0.00 0.00 0.00 1018.8
20260506113006 0 72 4.3 8.7 0.00 0.00 0.00 1018.7
20260506111600 0 59 3.5 9.6 0.00 0.00 0.00 1018.7
20260506110101 0 29 3.5 7.8 0.00 0.00 0.00 1018.6
20260506104556 0 57 4.3 8.7 0.00 0.00 0.00 1018.5
20260506103056 0 46 4.3 7.8 0.00 0.00 0.00 1018.4
20260506101556 0 42 3.5 9.6 0.00 0.00 0.00 1018.3
20260506100100 0 36 2.6 7.8 0.00 0.00 0.00 1018.2
20260506094537 0 59 4.3 8.7 0.00 0.00 0.00 1018.1
20260506093041 0 59 3.5 6.1 0.00 0.00 0.00 1018.0
20260506091534 0 42 3.5 7.8 0.00 0.00 0.00 1017.9
20260506090027 0 58 3.5 7.8 0.00 0.00 0.00 1017.9
20260506084520 0 55 4.3 7.0 0.00 0.00 0.00 1018.0
20260506083019 0 47 3.5 7.8 0.00 0.00 0.00 1017.8
20260506081514 0 336 1.7 2.6 0.00 0.00 0.00 1017.6
20260506073001 0 48 0.9 5.2 0.00 0.00 0.00 1017.3
20260506071600 0 46 2.6 7.8 0.00 0.00 0.00 1017.2
20260506061547 0 49 2.6 5.2 0.00 0.00 0.00 1016.7
20260506044638 0 30 0.0 3.5 0.00 0.00 0.00 1016.4
20260506043046 0 65 0.9 4.3 0.00 0.00 0.00 1016.3
20260506041557 0 12 0.9 5.2 0.00 0.00 0.00 1016.1